Snowfall_Accumulation
0.0 0.0 0.0 0.0 0.0 0.0 0.0 0.0 0.0 0.0 0.0 0.0 0.0 0.0 0.0 0.0 0.0 0.0 0.0 0.0 0.0 0.0 0.0 0.0 0.0 0.0 0.0 0.0 0.0 0.0 0.0 0.0 0.0 0.0 0.0 0.0 0.0 0.0 0.0 0.0 0.0 0.0 0.0
0.0 0.0 0.0 0.0 0.0 0.0 0.0 0.0 0.0 0.0 0.0 0.0 0.0 0.0 0.0 0.0 0.0 0.0 0.0 0.0 0.0 0.0 0.0 0.0 0.0 0.0 0.0 0.0 0.0 0.0 0.0 0.0 0.0 0.0 0.0 0.0 0.0 0.0 0.0 0.0 0.0 0.0 0.0
0.0 0.0 0.0 0.0 0.0 0.0 0.0 0.0 0.0 0.0 0.0 0.0 0.0 0.0 0.0 0.0 0.0 0.0 0.0 0.0 0.0 0.0 0.0 0.0 0.0 0.0 0.0 0.0 0.0 0.0 0.0 0.0 0.0 0.2 0.0 0.0 0.0 0.0 0.0 0.0 0.0 0.0 0.0
0.0 0.0 0.0 0.0 0.0 0.0 0.0 0.0 0.0 0.0 0.0 0.0 0.0 0.0 0.0 0.0 0.0 0.0 0.0 0.0 0.0 0.0 0.0 0.0 0.0 0.0 0.0 0.0 0.0 0.1 0.0 0.1 0.0 0.0 0.0 0.0 0.0 0.0 0.0 0.0 0.0 0.0 0.0
0.0 0.0 0.0 0.0 0.0 0.0 0.0 0.0 0.0 0.0 0.0 0.0 0.0 0.0 0.0 0.0 0.0 0.0 0.0 0.0 0.0 0.0 0.0 0.0 0.0 0.0 0.0 0.0 0.0 0.0 0.0 0.1 0.1 0.1 0.1 0.1 0.1 0.1 0.3 0.1 0.1 0.0 0.0
0.0 0.0 0.0 0.0 0.0 0.0 0.0 0.0 0.0 0.0 0.0 0.0 0.0 0.0 0.0 0.0 0.0 0.0 0.0 0.0 0.0 0.0 0.0 0.0 0.0 0.0 0.0 0.0 0.0 0.0 0.0 0.1 0.4 0.4 0.3 0.2 0.1 0.1 0.4 0.8 0.5 0.3 0.5
0.0 0.0 0.0 0.0 0.0 0.0 0.0 0.0 0.0 0.0 0.0 0.0 0.0 0.0 0.0 0.0 0.0 0.0 0.0 0.0 0.0 0.0 0.0 0.0 0.0 0.0 0.0 0.0 0.0 0.0 0.0 0.1 0.2 0.3 0.6 0.4 0.5 0.2 0.3 0.5 0.5 0.6 0.5
0.0 0.0 0.0 0.0 0.0 0.0 0.0 0.0 0.0 0.0 0.0 0.0 0.0 0.0 0.0 0.0 0.0 0.0 0.0 0.0 0.0 0.0 0.0 0.0 0.0 0.0 0.0 0.0 0.1 0.1 0.1 0.0 0.0 0.1 0.1 0.1 0.1 0.1 0.1 0.1 0.5 0.2 0.3
0.0 0.0 0.0 0.0 0.0 0.0 0.0 0.0 0.0 0.0 0.0 0.0 0.0 0.0 0.0 0.0 0.0 0.0 0.0 0.0 0.0 0.0 0.0 0.0 0.0 0.0 0.0 0.1 0.1 0.1 0.0 0.0 0.0 0.0 0.1 0.0 0.0 0.2 0.1 0.5 0.7 2.5 1.8
0.0 0.0 0.0 0.0 0.0 0.0 0.0 0.0 0.0 0.0 0.0 0.0 0.0 0.0 0.0 0.0 0.0 0.0 0.0 0.0 0.0 0.0 0.0 0.0 0.0 0.0 0.2 0.1 0.0 0.1 0.2 0.2 0.2 0.2 0.6 0.4 0.2 1.3 1.2 1.5 3.7 5.4 4.3
0.0 0.0 0.0 0.0 0.0 0.0 0.0 0.0 0.0 0.0 0.0 0.0 0.0 0.0 0.0 0.0 0.0 0.0 0.0 0.0 0.0 0.0 0.0 0.0 0.0 0.2 0.2 0.1 0.0 0.0 1.7 0.5 1.8 1.5 3.1 3.2 2.8 2.3 3.5 2.5 1.8 1.9 3.1
0.0 0.0 0.0 0.0 0.0 0.0 0.0 0.0 0.0 0.0 0.0 0.0 0.0 0.0 0.0 0.0 0.0 0.0 0.0 0.0 0.0 0.0 0.0 0.0 0.3 0.5 0.1 0.9 0.7 0.4 1.9 1.8 3.1 3.0 3.0 7.6 5.0 6.1 5.4 4.5 4.2 3.8 3.3
0.0 0.0 0.0 0.0 0.0 0.0 0.0 0.0 0.0 0.0 0.0 0.0 0.0 0.0 0.0 0.0 0.0 0.0 0.1 0.1 0.0 0.2 0.1 0.1 1.7 1.7 1.3 2.1 2.0 3.9 6.1 3.0 6.6 9.8 11.4 11.5 10.2 8.7 6.9 5.5 4.0 2.9 2.2
0.0 0.0 0.0 0.0 0.0 0.0 0.0 0.0 0.0 0.0 0.0 0.0 0.0 0.0 0.0 0.0 0.0 0.0 0.4 0.2 0.1 1.0 1.3 2.4 2.7 5.0 6.6 5.0 11.3 11.8 6.8 12.8 14.2 14.5 13.9 11.8 9.9 8.0 7.0 5.3 6.0 4.2 3.1
0.0 0.0 0.0 0.0 0.0 0.0 0.0 0.0 0.0 0.2 0.4 0.0 0.3 0.0 0.0 1.0 1.7 2.0 2.0 4.3 4.4 5.2 10.1 14.9 17.1 16.2 17.0 18.0 16.7 15.6 14.2 13.0 12.4 11.1 9.6 7.6 5.7 4.5 3.1 1.9 1.7 2.4 4.4
0.0 0.6 0.2 0.7 0.3 0.4 0.6 0.9 1.0 1.0 1.1 0.9 1.0 4.1 4.7 8.6 12.0 11.6 12.0 12.5 13.3 14.0 15.6 15.8 15.7 14.4 12.9 11.5 10.4 9.4 8.2 7.3 5.6 4.5 3.6 2.7 2.4 1.8 2.7 2.3 1.6 2.6 4.0
1.6 1.5 1.5 1.4 1.5 2.7 2.7 1.4 1.9 4.2 5.6 7.3 10.0 10.3 9.5 11.0 9.8 10.2 10.2 9.8 10.0 8.8 11.2 11.3 10.7 9.9 8.7 6.8 5.9 4.8 4.3 2.8 1.5 3.2 2.1 1.5 3.0 2.9 1.2 2.6 2.3 2.2 1.5
8.8 7.4 4.9 6.6 10.0 11.8 15.0 16.7 17.3 18.8 18.8 20.9 17.9 15.3 14.0 13.2 11.4 10.8 10.7 8.6 9.7 8.4 8.2 7.8 7.0 5.7 4.4 3.4 2.4 1.3 1.3 1.4 1.8 2.1 1.3 1.0 2.2 2.6 2.6 1.9 1.6 1.8 1.4
17.2 19.2 19.2 19.1 18.7 17.0 15.6 15.6 15.5 15.9 16.6 17.5 17.1 15.6 14.1 11.6 9.9 8.6 7.2 7.9 8.2 6.7 5.0 4.0 2.9 2.2 2.0 1.8 1.5 1.7 1.8 1.9 1.5 1.3 1.6 1.3 0.9 2.3 2.1 1.7 1.4 1.2 1.3
13.5 12.6 11.1 10.8 10.7 10.2 9.8 9.1 9.3 9.1 8.7 8.5 8.0 8.0 5.9 4.1 4.2 3.0 2.3 2.0 2.3 2.3 2.0 1.5 1.1 0.9 1.3 1.2 1.1 1.0 1.8 1.4 1.2 1.3 1.3 1.0 1.0 1.1 1.5 1.5 1.8 2.2 1.6
9.0 8.9 8.3 7.5 7.4 6.9 6.3 5.5 5.0 4.6 4.0 3.4 3.8 1.7 0.9 1.3 1.9 1.6 1.0 1.1 1.7 1.5 1.6 1.3 0.9 1.2 1.2 1.1 1.5 2.0 2.1 1.7 1.6 2.1 2.2 1.7 2.0 2.9 2.3 2.1 2.3 2.0 1.4
5.3 4.7 3.7 3.2 2.7 2.5 2.1 1.9 2.3 1.9 1.3 1.5 1.1 1.0 0.9 0.7 1.7 1.6 1.4 1.0 0.7 1.3 1.6 2.4 2.3 2.1 2.5 2.7 2.9 3.5 2.5 2.8 2.4 3.1 3.7 2.4 2.7 3.0 3.3 3.1 3.3 3.6 2.9
2.2 1.6 1.7 1.6 1.3 1.2 1.0 0.8 0.9 0.9 1.1 2.0 1.9 1.6 0.6 0.6 0.6 0.7 1.1 1.5 2.1 2.9 3.1 3.8 4.4 3.6 2.8 3.2 3.7 4.1 4.3 3.3 3.0 3.8 4.5 3.1 2.5 2.5 3.1 3.5 2.7 3.4 2.7
1.3 1.1 1.0 0.9 0.7 0.7 1.1 1.2 0.9 0.8 0.6 1.5 1.8 2.3 2.7 2.3 2.6 2.8 3.9 4.6 5.3 5.3 4.9 4.5 5.0 5.1 5.1 4.3 4.0 3.6 3.6 3.5 3.4 3.1 4.1 5.1 3.4 2.3 3.2 3.4 2.7 3.2 3.1
0.8 0.7 0.5 0.5 0.9 0.8 1.2 1.3 1.4 1.7 2.0 2.0 2.4 2.3 1.9 2.9 3.8 4.3 4.4 3.6 3.2 3.7 3.8 3.2 5.0 5.3 5.6 6.2 6.2 5.8 5.6 3.7 4.1 4.3 5.2 5.0 4.3 3.8 4.4 3.8 3.3 3.9 3.4
0.2 0.3 0.8 1.0 1.0 1.8 2.1 2.6 3.3 3.6 3.4 3.1 4.3 4.7 4.2 3.7 2.9 2.9 2.6 2.2 2.0 1.5 2.4 2.5 2.2 2.7 2.9 3.0 2.9 3.9 3.2 3.7 4.6 4.7 5.3 5.0 4.9 4.6 4.4 4.2 3.4 4.4 4.6